Location: Waco, TX
(31.5480°N, 97.1670°W)
Time: 02:07:33
(UTC-06:00)

ISS - Pass Details

Date: 24 January 2021
Orbit: 417 x 422 km, 51.6° (Epoch: 09 March)

Event Time Altitude Azimuth Distance (km) Brightness Sun altitude
Rises 16:14:38 0° 228° (SW) 2,351 1.8 18.1°
Reaches altitude 10° 16:16:43 10° 230° (SW) 1,491 1.7 17.7°
Maximum altitude 16:20:03 72° 315° (NW) 444 -3.3 17.1°
Drops below altitude 10° 16:23:25 10° 41° (NE) 1,502 -1.5 16.6°
Sets 16:25:32 0° 43° (NE) 2,369 -0.6 16.2°
